ONEWEB-0069, 45430

Orbit data source: Space-Track

ONEWEB-0069, 45430 is a payload satellite owned by One Web (UK) in LEO that was launched on Sat, 21 Mar 2020 UTC via a SOYUZ-2-1B launch vehicle from the Tyuratam Missile And Space Complex (TTMTR). Payload-class satellites include a variety of spacecraft equipped with specific instruments for various scientific and technological missions. These include communications satellites like Starlink; space stations such as the ISS; scientific satellites like the Hubble; Earth observation satellites from companies like Planet Labs, Umbra, and HawkEye 360; GPS; miniature CubeSats for education and research; and military/defense satellites.

Loading next visibility...
Identifier
45430, 2020-020G
Orbit
LEO
Country
Flag of UKUK
Related business
Manufacturer
One Web
Mission
Operational Commercial Communications
Bus & Motor
ARROW, Unknown motor
Mass
148 kg wet, ~140 kg dry
Launch date (UTC)
2020-03-21 (6 years ago)
Launch vehicle
SOYUZ-2-1B
Launch site
Tyuratam Missile And Space Complex (TTMTR)
Object type
Payload
Rocket body
Debris
Shape & HBR
Trap Box + 2 Pan, 6.7 m
Radar Cross Section
3.464 m², Large (>1 m²)

Expand to show TLE details & history
Last TLE update: 12 hours ago

TLE from 12 hours ago
0 ONEWEB-0069
1 45430U 20020G   26254.67247453  .00000354  00000-0  96385-3 0  9993
2 45430  87.8972   3.8768 0002013  99.3066 260.8290 13.11417112314007
Epoch: 2026-09-11T16:08Z
TLE epoch observation values (Epoch: 2026-09-11T16:08:21.799Z)
Latitude
0.00002°
Longitude
131.09351°
Altitude
1,220.815 km
Speed
7.244 km/s
True Right ascension
00h 15m 30s
True Declination
0° 00' 00"
Sunlit
Object was in full shadow at epoch
Visualization orbit readout
Latitude
Unknown
Longitude
Unknown
Altitude
Unknown
Speed
Unknown
Apparent Right ascension
Unknown
Apparent Declination
Unknown
Sunlit
N/A
Visualization observer readout
Local Sidereal Time
20:05:28
Azimuth
Unknown
Elevation
Unknown
Doppler factor
Unknown
Orbital elements
Apogee altitude
1,216.329 km
Perigee altitude
1,213.272 km
Semi-major axis
7,592.937 km
Eccentricity
0.0002
Inclination
87.8972°
RAAN
3.8768°
Arg. of periapsis
99.3066°
True anomaly
260.80623°
Mean anomaly
260.829°
Eccentric anomaly
260.81761°
Mean motion
3.28041 °/min
Orbital period
109.74 mins
BSTAR
0.00096385
Loading maneuver chart data...
Computing Atmospheric mass density...
Loading historical data...
Loading historical data...
Loading historical data...
Loading historical data...
Loading historical data...
Loading historical data...
Loading historical data...

Documentation

Showing up to 5 results
|